TimeEST,TemperatureF,Dew PointF,Humidity,Sea Level PressureIn,VisibilityMPH,Wind Direction,Wind SpeedMPH,Gust SpeedMPH,PrecipitationIn,Events,Conditions,WindDirDegrees,DateUTC
12:51 AM,28.0,19.0,69,30.23,10.0,WSW,10.4,-,0.00,Snow,Light Snow,250,2013-01-04 05:51:00
1:51 AM,27.0,18.0,69,30.23,10.0,WSW,6.9,-,0.00,Snow,Light Snow,250,2013-01-04 06:51:00
2:51 AM,27.0,19.0,72,30.24,8.0,WSW,6.9,17.3,0.00,Snow,Light Snow,250,2013-01-04 07:51:00
3:51 AM,27.0,19.9,75,30.24,8.0,WSW,8.1,-,0.00,Snow,Light Snow,250,2013-01-04 08:51:00
4:51 AM,27.0,19.0,72,30.23,9.0,WSW,9.2,-,0.00,Snow,Light Snow,250,2013-01-04 09:51:00
5:51 AM,27.0,18.0,69,30.23,9.0,West,10.4,17.3,0.00,Snow,Light Snow,260,2013-01-04 10:51:00
6:51 AM,27.0,18.0,69,30.23,9.0,WSW,10.4,-,0.00,,Overcast,240,2013-01-04 11:51:00
7:51 AM,27.0,19.0,72,30.24,10.0,WSW,8.1,-,N/A,,Overcast,240,2013-01-04 12:51:00
8:51 AM,28.0,19.9,72,30.25,7.0,West,11.5,19.6,0.00,Snow,Light Snow,270,2013-01-04 13:51:00
9:41 AM,26.6,21.2,80,30.20,2.0,West,10.4,17.3,0.00,Snow,Light Snow,270,2013-01-04 14:41:00
10:51 AM,27.0,21.9,81,30.26,4.0,WSW,9.2,-,0.00,Snow,Light Snow,240,2013-01-04 15:51:00
11:51 AM,28.9,21.0,72,30.23,9.0,West,12.7,18.4,0.00,,Overcast,260,2013-01-04 16:51:00
12:51 PM,30.0,18.0,61,30.19,10.0,WSW,15.0,21.9,N/A,,Mostly Cloudy,250,2013-01-04 17:51:00
1:51 PM,30.0,17.1,59,30.19,10.0,West,12.7,23.0,N/A,,Mostly Cloudy,260,2013-01-04 18:51:00
2:27 PM,30.2,17.6,60,30.13,10.0,WSW,16.1,26.5,N/A,,Partly Cloudy,250,2013-01-04 19:27:00
2:51 PM,32.0,17.1,54,30.18,10.0,WSW,15.0,26.5,N/A,,Partly Cloudy,240,2013-01-04 19:51:00
3:51 PM,32.0,18.0,56,30.19,10.0,WSW,13.8,23.0,N/A,,Partly Cloudy,240,2013-01-04 20:51:00
4:51 PM,30.9,17.1,57,30.20,10.0,WSW,10.4,24.2,N/A,,Clear,250,2013-01-04 21:51:00
5:51 PM,30.0,17.1,59,30.20,10.0,WSW,12.7,21.9,N/A,,Clear,250,2013-01-04 22:51:00
6:51 PM,30.0,17.1,59,30.21,10.0,WSW,15.0,29.9,N/A,,Clear,240,2013-01-04 23:51:00
7:51 PM,28.9,18.0,64,30.23,10.0,WSW,13.8,24.2,N/A,,Clear,250,2013-01-05 00:51:00
8:51 PM,28.9,17.1,61,30.25,10.0,WSW,13.8,21.9,N/A,,Clear,250,2013-01-05 01:51:00
9:51 PM,28.0,17.1,63,30.25,10.0,WSW,15.0,19.6,N/A,,Clear,250,2013-01-05 02:51:00
10:51 PM,27.0,16.0,63,30.29,10.0,WSW,6.9,-,N/A,,Clear,250,2013-01-05 03:51:00
11:51 PM,26.1,16.0,66,30.29,10.0,WSW,10.4,-,N/A,,Clear,250,2013-01-05 04:51:00